Powrót do katalogu

SENTINEL 2B

AktywnyNaukaSSO
NORAD 42063·PAYLOAD·🇪🇺 EU

Wystrzelony Mar 7, 2017 z Guiana Space Centre

Loading…

Następne Przeloty (najbliższe 24 godziny)

TLE

ŚwieżeSource: Space-Track

Epoka: Sep 14, 2026, 15:33 UTC

1 42063U 17013A   26257.64804561  .00000152  00000-0  74626-4 0  9990
2 42063  98.5721 331.1334 0001206  85.3188 274.8133 14.30814534497437

Śledź SENTINEL 2B w czasie rzeczywistym z AllMySat

Download on the App Store